Simultaneous Nadir Overpasses (SNOs) Predictions

Prediction of SNOs between LANDSAT-8 and NOAA-19 Satellite Orbit:

Table of predicted SNOs for the next 14.0 days since TLE Epoch: 4/27/2017
Index Date (LANDSAT-8) Time (LANDSAT-8) Lat,Lon (LANDSAT-8) SZA (LANDSAT-8 ) Date (NOAA-19) Time (NOAA-19) Lat,Lon (NOAA-19) SZA (NOAA-19 ) Distance(km) Time Diff (sec)
1 04/27/2017 22:41:19 -76.31, 28.76 117.69 04/27/2017 22:40:09 -76.35, 26.99 117.72 46.66 70
2 04/27/2017 23:30:50 76.04,-164.44 62.01 04/27/2017 23:31:01 76.03,-164.56 62.00 3.49 11
3 04/30/2017 04:15:06 76.06, 124.56 61.35 04/30/2017 04:13:52 76.09, 124.57 61.37 3.56 74
4 04/30/2017 05:04:34 -76.04, -67.88 118.69 04/30/2017 05:04:53 -76.01, -67.88 118.71 3.72 19
5 05/02/2017 09:48:49 -76.11,-138.73 119.27 05/02/2017 09:47:45 -76.09,-138.84 119.30 3.31 64
6 05/02/2017 10:38:16 76.03, 28.67 60.64 05/02/2017 10:38:42 76.04, 28.61 60.65 2.21 26
7 05/04/2017 15:22:31 76.09, -42.20 60.07 05/04/2017 15:21:33 76.11, -42.29 60.08 3.21 58
8 05/04/2017 16:12:00 -76.03, 125.24 120.02 05/04/2017 16:12:35 -76.02, 125.27 120.01 1.06 35
9 05/06/2017 20:56:15 -76.09, 54.36 120.57 05/06/2017 20:55:26 -76.07, 54.43 120.58 2.50 49
10 05/06/2017 21:45:41 76.06,-138.10 59.39 05/06/2017 21:46:22 76.02,-138.11 59.37 3.75 41
11 05/09/2017 02:29:55 76.11, 151.01 58.86 05/09/2017 02:29:12 76.10, 150.97 58.84 1.85 43
12 05/09/2017 03:19:24 -76.05, -41.54 121.22 05/09/2017 03:20:16 -76.06, -41.66 121.21 3.28 52
13 05/11/2017 08:03:39 -76.10,-112.44 121.73 05/11/2017 08:03:07 -76.12,-112.53 121.72 3.14 32




NCC Satellite Simultaneous Nadir Overpasses (SNOs) Prediction Service
